RYR56HE EGCC-LIRN

Flight info

Callsign RYR56HE
Flight time N/A
Altitude 35000
Route LISTO P18 TELBA L151 MID UL612 VEULE/N0448F370 UL612 OGULO DCT OKASI DCT OKEKO DCT MOU DCT MADIV DCT MOKIP DCT TUFTA DCT KOGAS/N0447F390 DCT MEDAM DCT NITAM DCT MOGBO DCT GEN DCT OLKIS DCT EVULI DCT ERIKA
Aircraft B738/M-SDE2E3FGHIRWXY/LB1

Departure

Time N/A
Airport Manchester Airport (EGCC)

Arrival

Time 2026-04-30 19:18
Airport Naples International Airport (LIRN)
Time Latitude Longitude Altitude Speed Heading
2026-04-30 17:39 47.56949 3.10255 35101 ft 433 kts 156°
2026-04-30 17:42 47.29135 3.27529 35100 ft 435 kts 156°
2026-04-30 17:43 47.15157 3.36138 35101 ft 436 kts 156°
2026-04-30 17:44 46.98305 3.46452 35105 ft 438 kts 156°
2026-04-30 17:47 46.73064 3.62265 35067 ft 439 kts 140°
2026-04-30 17:48 46.68312 3.76512 35106 ft 437 kts 103°
2026-04-30 17:48 46.66214 3.89469 35100 ft 439 kts 104°
2026-04-30 17:50 46.60214 4.23981 35101 ft 439 kts 104°
2026-04-30 17:52 46.55680 4.49688 35113 ft 436 kts 104°
2026-04-30 17:54 46.48833 4.87830 35115 ft 432 kts 105°
2026-04-30 17:56 46.42637 5.21593 35130 ft 436 kts 105°
2026-04-30 17:58 46.36411 5.46390 35129 ft 441 kts 129°
2026-04-30 18:00 46.20350 5.73299 35158 ft 442 kts 130°
2026-04-30 18:01 46.10339 5.90105 35182 ft 441 kts 130°
2026-04-30 18:02 45.98287 6.10198 35148 ft 442 kts 130°
2026-04-30 18:04 45.86092 6.30384 35160 ft 449 kts 130°
2026-04-30 18:05 45.77224 6.42986 35182 ft 453 kts 145°
2026-04-30 18:06 45.66843 6.53318 35199 ft 455 kts 145°
2026-04-30 18:08 45.48732 6.71614 35234 ft 456 kts 145°
2026-04-30 18:10 45.27934 6.92468 35247 ft 457 kts 145°
2026-04-30 18:11 45.11739 7.14243 35247 ft 461 kts 135°
2026-04-30 18:12 45.05890 7.25122 35241 ft 463 kts 123°
2026-04-30 18:13 45.02263 7.32639 35239 ft 464 kts 124°
2026-04-30 18:14 44.94319 7.52369 35276 ft 464 kts 113°
2026-04-30 18:15 44.86336 7.77285 35272 ft 466 kts 114°
2026-04-30 18:16 44.80879 7.93884 35262 ft 467 kts 114°
2026-04-30 18:17 44.78140 8.02182 35259 ft 468 kts 113°
2026-04-30 18:18 44.74471 8.13261 35273 ft 469 kts 114°
2026-04-30 18:18 44.71687 8.21637 35252 ft 470 kts 114°
2026-04-30 18:19 44.68910 8.29968 35261 ft 471 kts 114°
2026-04-30 18:19 44.66123 8.38296 35250 ft 472 kts 114°
2026-04-30 18:20 44.63323 8.46643 35252 ft 472 kts 114°
2026-04-30 18:20 44.60516 8.54983 35227 ft 473 kts 114°
2026-04-30 18:21 44.57694 8.63338 35211 ft 474 kts 114°
2026-04-30 18:21 44.54887 8.71627 35203 ft 474 kts 114°
2026-04-30 18:22 44.52052 8.79972 35200 ft 474 kts 114°
2026-04-30 18:22 44.47766 8.92541 35184 ft 474 kts 114°
2026-04-30 18:23 44.44919 9.00858 35185 ft 473 kts 114°
2026-04-30 18:23 44.42072 9.09145 35218 ft 473 kts 114°
2026-04-30 18:24 44.37481 9.21349 35211 ft 472 kts 116°
2026-04-30 18:25 44.34366 9.29409 35211 ft 471 kts 116°
2026-04-30 18:25 44.29735 9.41495 35212 ft 470 kts 116°
2026-04-30 18:26 44.25105 9.53585 35223 ft 471 kts 116°
2026-04-30 18:27 44.20454 9.65675 35192 ft 473 kts 116°
2026-04-30 18:28 44.15764 9.77808 35176 ft 474 kts 116°
2026-04-30 18:28 44.11037 9.89988 35159 ft 476 kts 116°
2026-04-30 18:29 44.04709 10.06208 35158 ft 478 kts 116°
2026-04-30 18:30 43.98340 10.22442 35198 ft 479 kts 116°
2026-04-30 18:31 43.93546 10.34605 35199 ft 480 kts 116°
2026-04-30 18:32 43.89831 10.42301 35199 ft 481 kts 127°
2026-04-30 18:32 43.87749 10.45952 35189 ft 482 kts 127°
2026-04-30 18:33 43.81456 10.56834 35190 ft 482 kts 127°
2026-04-30 18:33 43.75219 10.67789 35197 ft 483 kts 127°
2026-04-30 18:34 43.68959 10.78823 35188 ft 484 kts 127°
2026-04-30 18:35 43.64800 10.86126 35204 ft 485 kts 127°
2026-04-30 18:35 43.60621 10.93444 35202 ft 486 kts 127°
2026-04-30 18:36 43.54359 11.04375 35209 ft 486 kts 127°
2026-04-30 18:37 43.48030 11.15379 35187 ft 487 kts 128°
2026-04-30 18:37 43.43810 11.22694 35202 ft 487 kts 128°
2026-04-30 18:38 43.39589 11.29991 35213 ft 488 kts 128°
2026-04-30 18:38 43.35363 11.37281 35215 ft 489 kts 128°
2026-04-30 18:39 43.31120 11.44581 35206 ft 489 kts 128°
2026-04-30 18:39 43.26866 11.51882 35216 ft 489 kts 128°
2026-04-30 18:40 43.22609 11.59169 35201 ft 490 kts 128°
2026-04-30 18:40 43.18345 11.66450 35224 ft 490 kts 128°
2026-04-30 18:41 43.14066 11.73739 35223 ft 491 kts 128°
2026-04-30 18:41 43.09781 11.81022 35223 ft 492 kts 128°
2026-04-30 18:42 43.05484 11.88305 35220 ft 492 kts 128°
2026-04-30 18:42 42.99038 11.99197 35189 ft 492 kts 129°
2026-04-30 18:45 42.75591 12.38482 35160 ft 495 kts 129°
2026-04-30 18:46 42.71171 12.45829 34666 ft 505 kts 129°
2026-04-30 18:46 42.68944 12.49524 34206 ft 505 kts 129°
2026-04-30 18:46 42.66723 12.53204 33662 ft 502 kts 130°
2026-04-30 18:46 42.64509 12.56870 33126 ft 502 kts 130°
2026-04-30 18:47 42.62295 12.60529 32606 ft 504 kts 130°
2026-04-30 18:47 42.60057 12.64225 32077 ft 506 kts 130°
2026-04-30 18:47 42.57821 12.67911 31576 ft 507 kts 130°
2026-04-30 18:47 42.55574 12.71612 31087 ft 509 kts 130°
2026-04-30 18:48 42.53327 12.75308 30596 ft 510 kts 131°
2026-04-30 18:48 42.51060 12.79032 30118 ft 512 kts 131°
2026-04-30 18:48 42.48785 12.82764 29544 ft 514 kts 131°
2026-04-30 18:48 42.46509 12.86492 28995 ft 515 kts 131°
2026-04-30 18:49 42.44227 12.90226 28461 ft 515 kts 131°
2026-04-30 18:49 42.41943 12.93960 27928 ft 515 kts 131°
2026-04-30 18:49 42.39659 12.97689 27406 ft 514 kts 130°
2026-04-30 18:49 42.37381 13.01403 26890 ft 512 kts 130°
2026-04-30 18:50 42.35115 13.05094 26404 ft 510 kts 130°
2026-04-30 18:50 42.33616 13.07532 26085 ft 509 kts 130°
2026-04-30 18:50 42.30596 13.12440 25434 ft 505 kts 130°
2026-04-30 18:50 42.29111 13.14850 25164 ft 502 kts 130°
2026-04-30 18:51 42.26137 13.19671 24537 ft 497 kts 130°
2026-04-30 18:51 42.23938 13.23232 24090 ft 492 kts 130°
2026-04-30 18:51 42.22483 13.25585 23750 ft 489 kts 130°
2026-04-30 18:51 42.20321 13.29080 23208 ft 483 kts 130°
2026-04-30 18:52 42.18177 13.32539 22667 ft 478 kts 130°
2026-04-30 18:52 42.16007 13.35900 22150 ft 473 kts 134°
2026-04-30 18:52 42.13678 13.38981 21627 ft 468 kts 137°
2026-04-30 18:52 42.11302 13.41948 21115 ft 463 kts 138°
2026-04-30 18:53 42.08933 13.44855 20614 ft 458 kts 138°
2026-04-30 18:53 42.06568 13.47765 20243 ft 452 kts 137°
2026-04-30 18:53 42.04298 13.50581 19890 ft 447 kts 137°
2026-04-30 18:53 42.02003 13.53450 19531 ft 443 kts 137°
2026-04-30 18:54 41.99756 13.56273 19167 ft 441 kts 137°
2026-04-30 18:54 41.97516 13.59092 18820 ft 440 kts 137°
2026-04-30 18:54 41.95286 13.61900 18440 ft 439 kts 137°
2026-04-30 18:54 41.93062 13.64699 18045 ft 438 kts 137°
2026-04-30 18:55 41.90840 13.67492 17651 ft 437 kts 137°
2026-04-30 18:55 41.86419 13.73038 16849 ft 432 kts 137°
2026-04-30 18:55 41.84222 13.75789 16473 ft 429 kts 137°
2026-04-30 18:56 41.79906 13.81186 15720 ft 420 kts 137°
2026-04-30 18:56 41.77776 13.83846 15331 ft 416 kts 137°
2026-04-30 18:56 41.75673 13.86470 15072 ft 408 kts 137°
2026-04-30 18:57 41.71663 13.91468 14920 ft 379 kts 137°
2026-04-30 18:57 41.69769 13.93825 14835 ft 366 kts 137°
2026-04-30 18:57 41.67935 13.96105 14766 ft 353 kts 137°
2026-04-30 18:58 41.64449 14.00430 14562 ft 332 kts 137°
2026-04-30 18:58 41.62571 14.02139 14273 ft 325 kts 161°
2026-04-30 18:58 41.60389 14.02718 14067 ft 317 kts 182°
2026-04-30 18:59 41.56040 14.02034 13576 ft 316 kts 191°
2026-04-30 19:00 41.49499 14.00745 13201 ft 317 kts 192°
2026-04-30 19:00 41.47319 14.00331 13191 ft 316 kts 191°
2026-04-30 19:00 41.42957 13.99518 13205 ft 318 kts 191°
2026-04-30 19:01 41.38547 13.98701 13181 ft 321 kts 191°
2026-04-30 19:01 41.36340 13.98307 13178 ft 321 kts 189°
2026-04-30 19:02 41.31889 13.97749 13145 ft 318 kts 188°
2026-04-30 19:02 41.27530 13.97278 12649 ft 313 kts 188°
2026-04-30 19:03 41.23181 13.96788 11902 ft 313 kts 188°
2026-04-30 19:03 41.18873 13.96277 11301 ft 307 kts 188°
2026-04-30 19:04 41.14646 13.95745 10471 ft 304 kts 188°
2026-04-30 19:04 41.10457 13.95200 9677 ft 300 kts 188°
2026-04-30 19:05 41.06318 13.94657 8835 ft 296 kts 188°
2026-04-30 19:05 41.02263 13.94052 7994 ft 296 kts 194°
2026-04-30 19:06 40.98664 13.91716 7436 ft 287 kts 213°
2026-04-30 19:06 40.96929 13.90328 7129 ft 287 kts 213°
2026-04-30 19:06 40.93656 13.87665 6536 ft 286 kts 213°
2026-04-30 19:07 40.90296 13.84916 5919 ft 284 kts 213°
2026-04-30 19:07 40.88616 13.83531 5529 ft 286 kts 214°
2026-04-30 19:08 40.85255 13.80726 4858 ft 287 kts 213°
2026-04-30 19:08 40.81925 13.77898 4230 ft 286 kts 210°
2026-04-30 19:08 40.80037 13.77078 4066 ft 286 kts 181°
2026-04-30 19:09 40.76592 13.78911 4001 ft 265 kts 124°
2026-04-30 19:09 40.75778 13.81000 4020 ft 252 kts 103°
2026-04-30 19:09 40.75261 13.83157 3999 ft 240 kts 103°
2026-04-30 19:10 40.74837 13.87242 3981 ft 212 kts 88°
2026-04-30 19:10 40.74779 13.90907 3999 ft 194 kts 85°
2026-04-30 19:11 40.74787 13.92694 3999 ft 196 kts 85°
2026-04-30 19:11 40.74806 13.96322 4013 ft 200 kts 85°
2026-04-30 19:11 40.74811 13.98164 4010 ft 201 kts 85°
2026-04-30 19:12 40.74818 13.99995 4023 ft 195 kts 85°
2026-04-30 19:12 40.74821 14.01711 4003 ft 179 kts 85°
2026-04-30 19:12 40.75077 14.03206 3990 ft 161 kts 52°
2026-04-30 19:13 40.76441 14.05737 4012 ft 175 kts 53°
2026-04-30 19:13 40.77811 14.08376 4002 ft 170 kts 54°
2026-04-30 19:13 40.78455 14.09598 4016 ft 162 kts 53°
2026-04-30 19:14 40.79099 14.10825 3922 ft 163 kts 53°
2026-04-30 19:14 40.79758 14.12074 3680 ft 163 kts 53°
2026-04-30 19:14 40.80404 14.13298 3439 ft 162 kts 53°
2026-04-30 19:14 40.81040 14.14505 3186 ft 159 kts 53°
2026-04-30 19:15 40.81656 14.15671 2953 ft 155 kts 54°
2026-04-30 19:15 40.82874 14.17982 2468 ft 149 kts 53°
2026-04-30 19:15 40.83462 14.19095 2224 ft 142 kts 55°
2026-04-30 19:16 40.83997 14.20109 2044 ft 131 kts 55°
2026-04-30 19:16 40.84525 14.21106 1827 ft 132 kts 55°
2026-04-30 19:16 40.85630 14.23202 1369 ft 148 kts 55°
2026-04-30 19:17 40.86209 14.24295 1126 ft 143 kts 55°
2026-04-30 19:17 40.87329 14.26374 757 ft 139 kts 57°
2026-04-30 19:17 40.87842 14.27488 482 ft 144 kts 57°
2026-04-30 19:18 40.88697 14.29271 261 ft 109 kts 58°
2026-04-30 19:18 40.89022 14.29961 241 ft 24 kts 58°
2026-04-30 19:18 40.89061 14.30043 238 ft 10 kts 58°
2026-04-30 19:19 40.89051 14.30124 237 ft 10 kts 142°
2026-04-30 19:19 40.88989 14.30176 237 ft 10 kts 152°
2026-04-30 19:19 40.88894 14.30073 241 ft 9 kts 233°
2026-04-30 19:20 40.88855 14.30005 244 ft 9 kts 232°
2026-04-30 19:20 40.88815 14.29938 246 ft 10 kts 232°
2026-04-30 19:20 40.88699 14.29736 253 ft 18 kts 233°
2026-04-30 19:21 40.88616 14.29594 257 ft 21 kts 232°
2026-04-30 19:21 40.88429 14.29270 266 ft 22 kts 232°
2026-04-30 19:22 40.88251 14.28961 274 ft 21 kts 232°
2026-04-30 19:22 40.88031 14.28580 283 ft 15 kts 232°
2026-04-30 19:23 40.88001 14.28442 286 ft 0 kts 331°
2026-04-30 19:24 40.88002 14.28441 286 ft 1 kts 333°
2026-04-30 19:24 40.88004 14.28440 286 ft 0 kts 333°